Bowling Green, KY

7:28 AM CDT on May 27, 2017 (GMT -0500)
Bowling Green-Warren County Regional

Weather History for KBWG - April, 2013

Change the Weather History Date:

Tuesday, April 9, 2013

  Actual Average Record
Temperature  
Mean Temperature 73 °F 56 °F  
Max Temperature 80 °F 68 °F 89 °F (1978)
Min Temperature 65 °F 44 °F 22 °F (1914)
Degree Days  
Heating Degree Days 0 10  
Month to date heating degree days 103 100  
Since 1 July heating degree days 3675 3818  
Cooling Degree Days 8 1  
Month to date cooling degree days 10 8  
Year to date cooling degree days 10 13  
Growing Degree Days 22 (Base 50)    
Moisture  
Dew Point 57 °F    
Average Humidity 63    
Maximum Humidity 73    
Minimum Humidity 52    
Precipitation  
Precipitation 0.00 in 0.14 in 2.30 in (1942)
Month to date precipitation 0.17 1.20  
Year to date precipitation 13.07 13.18  
Snow  
Snow 0.00 in 0.00 in 0.00 in ()
Month to date snowfall 0.0 0.1  
Since 1 July snowfall 3.8 9.0  
Snow Depth 0.00 in    
Sea Level Pressure  
Sea Level Pressure 30.02 in    
Wind  
Wind Speed 9 mph (South)    
Max Wind Speed 22 mph    
Max Gust Speed 28 mph    
Visibility 10 miles    
Events      
T = Trace of Precipitation, MM = Missing Value Source: NWS Daily Summary

Daily Weather History Graph

Daily Weather History Graph

Search for Another Location

Airport or City:

Trip Planner

Search our weather history database for the weather conditions in past years. The results will help you decide how hot, cold, wet, or windy it might be!

Date:

Astronomy

Apr. 09, 2013 Rise Set
Actual Time 6:19 AM CDT 7:15 PM CDT
Civil Twilight 5:53 AM CDT 7:41 PM CDT
Nautical Twilight 5:21 AM CDT 8:13 PM CDT
Astronomical Twilight 4:49 AM CDT 8:45 PM CDT
Moon 5:41 AM CDT (4/9) 6:50 PM CDT (4/9)
Length of Visible Light 13h 48m
Length of Day
12h 55m
Waning Crescent, 1% of the Moon is Illuminated
Apr 9
Waning Crescent
Apr 10
New
Apr 18
First Quarter
Apr 25
Full
May 2
Last Quarter

Hourly Weather History & Observations

Time (CDT) Temp. Dew Point Humidity Pressure Visibility Wind Dir Wind Speed Gust Speed Precip Events Conditions
12:53 AM 66.9 °F 54.0 °F 63% 30.00 in 10.0 mi South 5.8 mph - N/A   Partly Cloudy
1:53 AM 66.9 °F 54.0 °F 63% 29.99 in 10.0 mi South 4.6 mph - N/A   Mostly Cloudy
2:53 AM 68.0 °F 53.1 °F 59% 29.99 in 10.0 mi South 5.8 mph - N/A   Mostly Cloudy
3:53 AM 69.1 °F 53.1 °F 57% 30.00 in 10.0 mi South 10.4 mph - N/A   Mostly Cloudy
4:53 AM 66.9 °F 53.1 °F 61% 30.01 in 10.0 mi South 8.1 mph - N/A   Mostly Cloudy
5:53 AM 64.9 °F 54.0 °F 68% 30.03 in 10.0 mi South 8.1 mph - N/A   Clear
6:53 AM 66.0 °F 54.0 °F 65% 30.06 in 10.0 mi SSE 6.9 mph - N/A   Clear
7:53 AM 68.0 °F 55.0 °F 63% 30.08 in 10.0 mi South 10.4 mph - N/A   Partly Cloudy
8:53 AM 68.0 °F 55.9 °F 65% 30.07 in 10.0 mi SSE 4.6 mph - N/A   Partly Cloudy
9:53 AM 73.0 °F 57.9 °F 59% 30.09 in 10.0 mi South 11.5 mph - N/A   Partly Cloudy
10:53 AM 75.9 °F 59.0 °F 56% 30.11 in 10.0 mi South 17.3 mph 27.6 mph N/A   Mostly Cloudy
11:53 AM 75.9 °F 59.0 °F 56% 30.09 in 10.0 mi South 15.0 mph - N/A   Clear
12:53 PM 78.1 °F 59.0 °F 52% 30.06 in 10.0 mi South 19.6 mph 24.2 mph N/A   Clear
1:53 PM 79.0 °F 60.1 °F 52% 30.04 in 10.0 mi South 15.0 mph 25.3 mph N/A   Clear
2:53 PM 75.9 °F 59.0 °F 56% 30.03 in 10.0 mi SSW 12.7 mph 20.7 mph N/A   Mostly Cloudy
3:53 PM 77.0 °F 60.1 °F 56% 30.01 in 10.0 mi South 17.3 mph 23.0 mph N/A   Mostly Cloudy
4:53 PM 78.1 °F 60.1 °F 54% 29.99 in 10.0 mi South 13.8 mph 21.9 mph N/A   Mostly Cloudy
5:53 PM 75.9 °F 60.1 °F 58% 29.99 in 10.0 mi SW 8.1 mph - N/A   Mostly Cloudy
6:53 PM 75.0 °F 60.1 °F 60% 29.99 in 10.0 mi SSW 6.9 mph - N/A   Partly Cloudy
7:53 PM 73.9 °F 60.1 °F 62% 29.99 in 10.0 mi South 5.8 mph - N/A   Overcast
8:53 PM 70.0 °F 60.1 °F 71% 29.99 in 10.0 mi Calm Calm - N/A   Mostly Cloudy
9:53 PM 69.1 °F 59.0 °F 70% 30.00 in 10.0 mi SSE 4.6 mph - N/A   Clear
10:53 PM 70.0 °F 57.9 °F 65% 29.98 in 10.0 mi SSE 5.8 mph - N/A   Clear
11:53 PM 69.1 °F 57.9 °F 68% 29.99 in 10.0 mi South 3.5 mph - N/A   Clear